This is the latest recevied weather packets stored in our database for station/object N2ZVN. If no packets are shown the sender has not sent any weather packets the latest 10 day(s).
| Time | Temp. | Humidity | Pressure | Rain* | Wind** | Luminosity | Snow |
|---|---|---|---|---|---|---|---|
| 1777669738 | 7.78° C | 83% | 1012.3 hPa | 0 mm | - | 138 W/m² | - |
| 1777669435 | 7.78° C | 85% | 1012.3 hPa | 0 mm | - | 149 W/m² | - |
| 1777669131 | 7.78° C | 84% | 1012.3 hPa | 0 mm | - | 154 W/m² | - |
| 1777668828 | 7.22° C | 85% | 1012.4 hPa | 0 mm | - | 162 W/m² | - |
| 1777668525 | 7.78° C | 84% | 1012.4 hPa | 0 mm | - | 176 W/m² | - |
| 1777668221 | 7.78° C | 86% | 1012.7 hPa | 0 mm | - | 194 W/m² | - |
| 1777667917 | 7.22° C | 86% | 1012.7 hPa | 0 mm | - | 186 W/m² | - |
| 1777667615 | 7.22° C | 86% | 1012.8 hPa | 0 mm | - | 155 W/m² | - |
| 1777667312 | 7.22° C | 83% | 1012.7 hPa | 0 mm | - | 126 W/m² | - |
| 1777667009 | 7.22° C | 84% | 1012.9 hPa | 0 mm | - | 122 W/m² | - |
| 1777666706 | 7.22° C | 83% | 1012.7 hPa | 0 mm | - | 136 W/m² | - |
| 1777666403 | 7.22° C | 83% | 1013.1 hPa | 0 mm | - | 135 W/m² | - |
| 1777666099 | 6.67° C | 86% | 1012.9 hPa | 0 mm | - | 152 W/m² | - |
| 1777665796 | 6.67° C | 83% | 1012.8 hPa | 0 mm | - | 161 W/m² | - |
| 1777665494 | 6.67° C | 84% | 1012.8 hPa | 0 mm | - | 148 W/m² | - |
| 1777665189 | 6.67° C | 82% | 1013 hPa | 1.27 mm | - | 118 W/m² | - |
| 1777664885 | 6.67° C | 82% | 1013.1 hPa | 0 mm | - | 59 W/m² | - |
| 1777664582 | 6.67° C | 80% | 1013.1 hPa | 0 mm | - | 78 W/m² | - |
| 1777664278 | 6.67° C | 82% | 1013.2 hPa | 0 mm | - | 93 W/m² | - |
| 1777663977 | 6.67° C | 80% | 1013.1 hPa | 0 mm | - | 100 W/m² | - |
| 1777663674 | 6.67° C | 80% | 1013.2 hPa | 0 mm | - | 105 W/m² | - |
| 1777663370 | 6.67° C | 81% | 1013.1 hPa | 0 mm | - | 169 W/m² | - |
| 1777663068 | 6.67° C | 81% | 1013.3 hPa | 0 mm | - | 127 W/m² | - |
| 1777662765 | 6.11° C | 83% | 1013.4 hPa | 0 mm | - | 97 W/m² | - |
| 1777662462 | 6.11° C | 80% | 1013.2 hPa | 0 mm | - | 72 W/m² | - |
* Rain latest hour (hover to see other rain measurements)
** Current wind speed in m/s (hover to see current wind gust speed)